Location: PACMO
(41.3967°N, 90.3760°W)
Time: 06:51:21
(UTC-05:00)

Amateur Radio Satellites - All Passes

Search period start: 01 August 2014 06:21
Search period end: 02 August 2014 06:21
Location: PACMO, 41.3967°N, 90.3760°W

Satellite Date Start Highest point End Downlink Frequencies (MHz)
Time Altitude Azimuth
AO-7 01 Aug 06:24:11 06:32:18 59° 294° (WNW) 06:40:21 29.400 - 29.500 MHz
STRAND 1 01 Aug 06:24:16 06:29:07 43° 70° (ENE) 06:33:58 ?
JAS-2 01 Aug 06:47:46 06:53:07 38° 96° (E) 06:58:01 435.800 - 435.900 CW/SSB, 435.910 FM
MaSat-1 01 Aug 06:54:17 06:59:19 47° 251° (WSW) 07:04:00 437.345 MHz
Uosat F 01 Aug 07:05:59 07:08:08 13° 301° (WNW) 07:10:17 435.120 FM
KITSAT 1 01 Aug 07:08:14 07:16:02 49° 309° (NW) 07:23:52 435.175 FM
Hamsat 01 Aug 07:10:27 07:14:48 86° 283° (WNW) 07:19:08 145.90 MHz
PCSat 01 Aug 07:34:28 07:36:57 13° 38° (NE) 07:39:26 145.825 MHz
Saudisat 1A 01 Aug 07:42:08 07:46:26 50° 307° (NW) 07:50:46 436.775 MHz
STRAND 1 01 Aug 08:04:28 08:08:28 23° 266° (W) 08:12:29 ?
AO-7 01 Aug 08:19:35 08:23:21 14° 315° (NW) 08:27:06 29.400 - 29.500 MHz
SO-67 01 Aug 08:23:54 08:27:22 71° 284° (WNW) 08:30:49 435.3500 MHz FM
JAS-2 01 Aug 08:33:12 08:38:02 28° 297° (WNW) 08:42:31 435.800 - 435.900 CW/SSB, 435.910 FM
Sapphire 01 Aug 08:43:13 08:48:10 35° 51° (NE) 08:53:05 437.095 MHz 1200 baud AX-25 AFSK
HO-68 01 Aug 09:06:08 09:11:49 25° 94° (E) 09:17:27 435.675 MHz FM
KITSAT 1 01 Aug 09:08:56 09:13:41 16° 335° (NNW) 09:18:27 435.175 FM
PCSat 01 Aug 09:16:01 09:21:27 66° 58° (ENE) 09:26:49 145.825 MHz
UKube-1 01 Aug 09:41:47 09:45:23 25° 96° (E) 09:48:58 145.840 MHz, 145.915 MHz
Oscar 11 01 Aug 10:22:38 10:26:41 38° 98° (E) 10:30:44 145.825 FM, Beacon 2401.500 USB
Sapphire 01 Aug 10:26:40 10:31:34 35° 250° (WSW) 10:36:26 437.095 MHz 1200 baud AX-25 AFSK
HO-68 01 Aug 10:52:56 10:59:57 62° 291° (WNW) 11:06:57 435.675 MHz FM
FUNcube-1 01 Aug 10:54:19 10:58:02 30° 97° (E) 11:01:48 145.950 - 145.970 MHz USB
PCSat 01 Aug 11:00:51 11:04:17 17° 255° (WSW) 11:07:41 145.825 MHz
KITSAT 1 01 Aug 11:11:11 11:13:23 11° 7° (N) 11:15:34 435.175 FM
UKube-1 01 Aug 11:17:49 11:21:34 29° 292° (WNW) 11:25:19 145.840 MHz, 145.915 MHz
SO-50 01 Aug 11:31:28 11:35:35 38° 116° (ESE) 11:39:48 436.795 FM
Oscar 11 01 Aug 11:59:28 12:02:37 20° 294° (WNW) 12:05:45 145.825 FM, Beacon 2401.500 USB
Oscar 16 01 Aug 12:06:52 12:08:08 11° 58° (ENE) 12:09:24 437.025 USB, Beacon 2401.1428
JAS-1B 01 Aug 12:22:16 12:26:48 15° 45° (NE) 12:31:24 435.800 - 435.900 CW/SSB
RS-15 01 Aug 12:22:28 12:32:38 43° 109° (ESE) 12:42:35 29.354 - 29.394 USB, Beacon 29.352 USB
FUNcube-1 01 Aug 12:31:02 12:34:18 23° 292° (WNW) 12:37:36 145.950 - 145.970 MHz USB
HO-68 01 Aug 12:43:36 12:46:15 12° 311° (NW) 12:48:54 435.675 MHz FM
Uribyol 2 01 Aug 12:52:24 12:55:07 15° 60° (ENE) 12:57:49 436.500 FM
AO-27 01 Aug 12:54:07 12:56:52 15° 60° (ENE) 12:59:37 436.795 MHz FM
AO-Echo 01 Aug 13:01:20 13:04:43 18° 62° (ENE) 13:08:07 ?
KITSAT 1 01 Aug 13:06:06 13:12:27 24° 36° (NE) 13:18:45 435.175 FM
UOSAT-12 01 Aug 13:11:46 13:15:45 30° 114° (ESE) 13:19:48 437.025 FM, 437.400 FM
SO-50 01 Aug 13:12:28 13:16:15 26° 314° (NW) 13:20:07 436.795 FM
Oscar 19 01 Aug 13:12:51 13:17:38 42° 70° (ENE) 13:22:27 437.125 CW, 437.150 USB
Gurwin Techsat 1B 01 Aug 13:37:29 13:40:27 15° 60° (ENE) 13:43:25 435.225 FM
Oscar 16 01 Aug 13:41:32 13:46:38 82° 75° (ENE) 13:51:48 437.025 USB, Beacon 2401.1428
JAS-1B 01 Aug 14:06:09 14:14:58 54° 66° (ENE) 14:24:29 435.800 - 435.900 CW/SSB
ITAMSAT 1 01 Aug 14:10:17 14:15:27 69° 73° (ENE) 14:20:38 435.822 SSB
Uribyol 2 01 Aug 14:28:44 14:33:56 77° 257° (WSW) 14:39:08 436.500 FM
Saudisat 1A 01 Aug 14:30:03 14:33:09 18° 42° (NE) 14:36:14 436.775 MHz
AO-27 01 Aug 14:30:29 14:35:43 78° 257° (WSW) 14:40:57 436.795 MHz FM
RS-15 01 Aug 14:33:46 14:44:38 58° 311° (NW) 14:55:23 29.354 - 29.394 USB, Beacon 29.352 USB
AO-Echo 01 Aug 14:37:39 14:42:56 66° 259° (WSW) 14:48:14 ?
TMSAT-1 01 Aug 14:47:51 14:52:53 46° 70° (ENE) 14:57:56 436.925 FM
UOSAT-12 01 Aug 14:51:36 14:55:49 34° 312° (NW) 15:00:07 437.025 FM, 437.400 FM
Oscar 19 01 Aug 14:53:08 14:57:08 23° 266° (W) 15:01:10 437.125 CW, 437.150 USB
KITSAT 1 01 Aug 15:00:56 15:09:04 84° 59° (ENE) 15:17:09 435.175 FM
Uosat F 01 Aug 15:02:25 15:05:10 15° 60° (ENE) 15:07:56 435.120 FM
Gurwin Techsat 1B 01 Aug 15:14:28 15:19:46 75° 257° (WSW) 15:25:07 435.225 FM
Oscar 16 01 Aug 15:25:05 15:26:37 11° 271° (W) 15:28:09 437.025 USB, Beacon 2401.1428
AO-7 01 Aug 15:30:49 15:38:34 44° 62° (ENE) 15:46:19 29.400 - 29.500 MHz
ITAMSAT 1 01 Aug 15:52:38 15:55:25 14° 270° (W) 15:58:13 435.822 SSB
JAS-1B 01 Aug 15:57:06 16:05:32 42° 266° (W) 16:14:46 435.800 - 435.900 CW/SSB
OPAL 01 Aug 16:06:24 16:09:34 16° 94° (E) 16:12:45 ?
Saudisat 1A 01 Aug 16:08:46 16:13:08 61° 241° (WSW) 16:17:27 436.775 MHz
TMSAT-1 01 Aug 16:28:56 16:33:01 22° 267° (W) 16:37:06 436.925 FM
Uosat F 01 Aug 16:38:20 16:43:21 72° 257° (WSW) 16:48:25 435.120 FM
RS-15 01 Aug 16:51:44 17:00:03 24° 342° (NNW) 17:08:24 29.354 - 29.394 USB, Beacon 29.352 USB
KITSAT 1 01 Aug 16:58:01 17:03:28 20° 258° (WSW) 17:08:54 435.175 FM
JAS-2 01 Aug 16:59:21 17:05:05 24° 62° (ENE) 17:10:28 435.800 - 435.900 CW/SSB, 435.910 FM
AO-7 01 Aug 17:23:27 17:31:18 44° 260° (W) 17:39:12 29.400 - 29.500 MHz
OPAL 01 Aug 17:43:47 17:48:49 61° 290° (WNW) 17:53:53 ?
Hamsat 01 Aug 18:03:46 18:07:54 67° 75° (ENE) 18:12:06 145.90 MHz
STRAND 1 01 Aug 18:36:23 18:39:02 14° 90° (E) 18:41:40 ?
JAS-2 01 Aug 18:41:46 18:49:31 74° 257° (WSW) 18:56:42 435.800 - 435.900 CW/SSB, 435.910 FM
SO-67 01 Aug 18:57:09 19:00:20 35° 73° (ENE) 19:03:31 435.3500 MHz FM
RS-15 01 Aug 19:09:25 19:17:44 24° 18° (NNE) 19:26:10 29.354 - 29.394 USB, Beacon 29.352 USB
HO-68 01 Aug 19:36:04 19:41:04 21° 56° (NE) 19:46:03 435.675 MHz FM
SO-50 01 Aug 20:02:40 20:07:07 39° 50° (NE) 20:11:38 436.795 FM
STRAND 1 01 Aug 20:13:37 20:18:42 68° 287° (WNW) 20:23:44 ?
SO-67 01 Aug 20:31:57 20:33:32 13° 268° (W) 20:35:09 435.3500 MHz FM
JAS-2 01 Aug 20:32:08 20:35:23 13° 273° (W) 20:38:34 435.800 - 435.900 CW/SSB, 435.910 FM
UKube-1 01 Aug 20:37:41 20:41:09 23° 67° (ENE) 20:44:37 145.840 MHz, 145.915 MHz
MaSat-1 01 Aug 20:44:40 20:48:49 82° 114° (ESE) 20:53:39 437.345 MHz
Oscar 11 01 Aug 21:17:58 21:21:43 30° 69° (ENE) 21:25:31 145.825 FM, Beacon 2401.500 USB
HO-68 01 Aug 21:20:46 21:27:56 82° 254° (WSW) 21:35:09 435.675 MHz FM
RS-15 01 Aug 21:22:24 21:33:14 57° 48° (NE) 21:44:23 29.354 - 29.394 USB, Beacon 29.352 USB
UOSAT-12 01 Aug 21:40:55 21:45:06 30° 47° (NE) 21:49:13 437.025 FM, 437.400 FM
SO-50 01 Aug 21:43:32 21:47:32 27° 247° (WSW) 21:51:35 436.795 FM
ISS 01 Aug 21:49:59 21:52:55 29° 136° (SE) 21:55:53 145.800 FM
FUNcube-1 01 Aug 21:51:16 21:54:48 26° 69° (ENE) 21:58:17 145.950 - 145.970 MHz USB
UKube-1 01 Aug 22:13:16 22:17:11 32° 263° (W) 22:21:07 145.840 MHz, 145.915 MHz
MaSat-1 01 Aug 22:24:26 22:26:55 14° 316° (NW) 22:29:33 437.345 MHz
Oscar 11 01 Aug 22:54:29 22:57:55 23° 266° (W) 23:01:23 145.825 FM, Beacon 2401.500 USB
HO-68 01 Aug 23:13:22 23:16:38 14° 272° (W) 23:19:56 435.675 MHz FM
UOSAT-12 01 Aug 23:20:58 23:25:18 36° 245° (WSW) 23:29:33 437.025 FM, 437.400 FM
Sapphire 01 Aug 23:25:37 23:30:12 29° 109° (ESE) 23:34:49 437.095 MHz 1200 baud AX-25 AFSK
ISS 01 Aug 23:26:27 23:29:34 36° 333° (NNW) 23:32:43 145.800 FM
FUNcube-1 01 Aug 23:27:30 23:31:08 27° 264° (W) 23:34:43 145.950 - 145.970 MHz USB
RS-15 01 Aug 23:35:08 23:45:20 45° 250° (WSW) 23:55:56 29.354 - 29.394 USB, Beacon 29.352 USB
PCSat 01 Aug 23:57:41 00:02:59 60° 115° (ESE) 00:08:19 145.825 MHz
ISS 02 Aug 01:04:57 01:07:01 15° 352° (N) 01:09:05 145.800 FM
Sapphire 02 Aug 01:08:22 01:13:27 41° 307° (NW) 01:18:34 437.095 MHz 1200 baud AX-25 AFSK
Oscar 19 02 Aug 01:25:41 01:28:33 15° 90° (E) 01:31:25 437.125 CW, 437.150 USB
PCSat 02 Aug 01:42:34 01:46:48 23° 314° (NW) 01:51:04 145.825 MHz
Oscar 16 02 Aug 01:53:36 01:58:04 29° 96° (E) 02:02:31 437.025 USB, Beacon 2401.1428
JAS-1B 02 Aug 01:55:53 02:00:23 15° 81° (E) 02:04:32 435.800 - 435.900 CW/SSB
AO-40 02 Aug 02:02:54 02:41:24 11° 112° (ESE) 03:11:56 Beacon 2401.320
ITAMSAT 1 02 Aug 02:23:49 02:27:58 24° 94° (E) 02:32:05 435.822 SSB
Uribyol 2 02 Aug 02:41:40 02:46:27 37° 98° (E) 02:51:13 436.500 FM
ISS 02 Aug 02:42:22 02:44:43 17° 13° (NNE) 02:47:04 145.800 FM
AO-27 02 Aug 02:43:45 02:48:34 37° 98° (E) 02:53:20 436.795 MHz FM
AO-Echo 02 Aug 02:45:26 02:50:08 40° 98° (E) 02:54:40 ?
Oscar 19 02 Aug 03:03:13 03:08:21 66° 287° (WNW) 03:13:29 437.125 CW, 437.150 USB
TMSAT-1 02 Aug 03:04:35 03:08:10 18° 92° (E) 03:11:43 436.925 FM
OPAL 02 Aug 03:21:05 03:25:20 30° 65° (ENE) 03:29:37 ?
Gurwin Techsat 1B 02 Aug 03:30:47 03:35:51 44° 99° (E) 03:40:53 435.225 FM
Oscar 16 02 Aug 03:32:46 03:37:25 35° 292° (WNW) 03:42:04 437.025 USB, Beacon 2401.1428
AO-7 02 Aug 03:36:20 03:38:13 11° 86° (E) 03:40:05 29.400 - 29.500 MHz
JAS-1B 02 Aug 03:43:25 03:52:40 78° 103° (ESE) 04:00:22 435.800 - 435.900 CW/SSB
ITAMSAT 1 02 Aug 04:02:46 04:07:36 41° 291° (WNW) 04:12:25 435.822 SSB
ISS 02 Aug 04:18:39 04:21:59 57° 32° (NNE) 04:25:18 145.800 FM
Uribyol 2 02 Aug 04:21:28 04:25:46 27° 294° (WNW) 04:30:02 436.500 FM
AO-27 02 Aug 04:23:36 04:27:54 27° 294° (WNW) 04:32:12 436.795 MHz FM
AO-Echo 02 Aug 04:24:43 04:28:39 24° 295° (WNW) 04:32:28 ?
TMSAT-1 02 Aug 04:43:15 04:48:26 56° 288° (WNW) 04:53:35 436.925 FM
Uosat F 02 Aug 04:46:17 04:50:51 34° 97° (E) 04:55:23 435.120 FM
PANSAT 02 Aug 04:48:51 04:50:24 12° 181° (S) 04:51:57 not established
OPAL 02 Aug 04:59:45 05:04:08 32° 261° (W) 05:08:35 ?
MaSat-1 02 Aug 05:03:09 05:07:34 26° 52° (NE) 05:11:46 437.345 MHz
Gurwin Techsat 1B 02 Aug 05:11:19 05:15:32 25° 295° (WNW) 05:19:45 435.225 FM
AO-7 02 Aug 05:24:12 05:32:30 66° 104° (ESE) 05:40:43 29.400 - 29.500 MHz
KITSAT 1 02 Aug 05:28:46 05:36:39 60° 114° (ESE) 05:44:35 435.175 FM
JAS-1B 02 Aug 05:34:53 05:42:04 27° 305° (NW) 05:48:31 435.800 - 435.900 CW/SSB
Hamsat 02 Aug 05:51:21 05:53:08 12° 90° (E) 05:54:54 145.90 MHz
STRAND 1 02 Aug 05:51:59 05:55:54 23° 64° (ENE) 05:59:49 ?
JAS-2 02 Aug 05:55:15 05:57:23 12° 86° (E) 05:59:27 435.800 - 435.900 CW/SSB, 435.910 FM
ISS 02 Aug 05:56:07 05:58:24 17° 228° (SW) 06:00:41 145.800 FM
